Regional Weather Roundup
Issued by NWS San Diego, CA

Home | Current Version | Previous Version | Text Only | Print | Product List | Glossary On
Versions: 1 2 3 4 5 6 7 8 9 10 11 12 13 14 15 16 17 18 19 20 21 22 23 24 25 26 27
000
ASUS46 KSGX 041111
RWRSGX

SAN DIEGO HOURLY WEATHER ROUNDUP
NATIONAL WEATHER SERVICE SAN DIEGO CA
300 AM PST SUN DEC 04 2016

NOTE: "FAIR" INDICATES FEW OR NO CLOUDS BELOW 12,000 FEET WITH NO
SIGNIFICANT WEATHER AND/OR OBSTRUCTIONS TO VISIBILITY.

CAZ042-043-060-061-PZZ750-775-041200-

GREATER SAN DIEGO AREA

CITY           SKY/WX    TMP DP  RH WIND       PRES   REMARKS
SAN DIEGO AP   CLEAR     49  31  49 CALM      30.08F
NATIONAL CITY    N/A     45  34  66 CALM      30.07F
CHULA VISTA      N/A     43  34  72 E2        29.99F
IMPERIAL BEACH CLEAR     48  35  60 E9        30.07F
BROWN FIELD    CLEAR     42  33  70 E7        30.06F
MIRAMAR MCAS   CLEAR     48  32  53 E7        30.06S
MONTGOMERY FLD CLEAR     44  31  60 E3        30.07S

$$

NORTH SAN DIEGO COUNTY

CITY           SKY/WX    TMP DP  RH WIND       PRES   REMARKS
CAMP PENDLETON CLEAR     35  28  75 N6        30.07S WCI  30
OCEANSIDE AP   CLEAR     39  30  70 CALM      30.06S
OCEANSIDE HBR    N/A     44  31  60 NE5       30.09S
VISTA            N/A     45  31  59 CALM      30.05F
CARLSBAD       CLEAR     47  30  51 E5        30.05S
DEL MAR          N/A     50  32  49 CALM      30.09S
LA JOLLA SCRIP   N/A     53  33  47 E3        30.06S
FALLBROOK        N/A     49  27  41 E2        30.05S
ESCONDIDO        N/A     42  31  65 CALM      30.09F
SAN MARCOS       N/A     52  27  38 CALM      30.09S
POWAY            N/A     38  31  76 CALM      30.10F

$$

EAST SAN DIEGO COUNTY

CITY           SKY/WX    TMP DP  RH WIND       PRES   REMARKS
RAMONA         CLEAR     32  28  85 CALM      30.07S
SANTEE LAKES     N/A     40  33  78 CALM      30.08S
LA MESA          N/A     49  32  52 CALM      30.02R
JAMUL            N/A     42  29  61 CALM      30.09S
DESCANSO N       N/A     56  16  20 E3        30.02F
CAMPO            N/A     46  17  31 W3        30.06R

$$

ORANGE COUNTY AND THE LOS ANGELES BASIN

CITY           SKY/WX    TMP DP  RH WIND       PRES   REMARKS
JOHN WAYNE AP  CLEAR     48  30  49 CALM      30.06S
LAGUNA BEACH     N/A     42  33  70 CALM      30.01F
LAKE FOREST FR   N/A     53  17  23 CALM      29.94R
HUNTINGTON BCH   N/A     41  37  85 CALM      30.07F
LOS ALAMITOS   FAIR      44  34  68 CALM      30.05F
FULLERTON      CLEAR     45  28  51 CALM      30.05F
LONG BEACH     CLEAR     47  32  56 CALM      30.06F
L.A. AP        CLEAR     50  30  46 E5        30.06F
L.A. DOWNTOWN  CLEAR     47  33  58 CALM      30.05F

$$

THE INLAND EMPIRE

CITY           SKY/WX    TMP DP  RH WIND       PRES   REMARKS
CORONA         CLEAR     34  27  75 CALM      30.07S
CHINO          CLEAR     41  31  67 SW3       30.08R
ONTARIO        PTCLDY    47  24  40 N5        30.06S
SAN BERNARDINO FAIR      50  22  33 E3        30.08S
RIVERSIDE AP   CLEAR     53  23  31 NE6       30.06S
MORENO VALLEY    N/A     50  29  44 CALM      28.20S
MARCH ARB      CLEAR     36  28  71 NW3       30.08S
HORSETHIEF CYN   N/A     49  17  27 W5        30.12R
PERRIS           N/A     44  29  56 CALM      30.13R
HEMET EAST       N/A     52  13  21 CALM      30.15S
FRENCH VALLEY  NOT AVBL
TEMECULA         N/A     40  31  71 CALM      30.15S

$$

SAN BERNARDINO AND RIVERSIDE COUNTY MOUNTAINS

CITY           SKY/WX    TMP DP  RH WIND       PRES   REMARKS
BIG BEAR AP    CLEAR     28  10  47 CALM      30.25S
ANGELUS OAKS     N/A     44  16  32 E2        30.10F
PINE COVE        N/A     46   8  21 CALM      30.13F

$$

SOUTHERN DESERT INCLUDING THE COACHELLA VALLEY

CITY           SKY/WX    TMP DP  RH WIND       PRES   REMARKS
PALM SPRINGS   CLEAR     54  21  27 N10       30.09F
PALM DESERT      N/A     49  30  47 CALM        N/A
THERMAL        CLEAR     41  21  44 W5        30.05F
BLYTHE         CLEAR     50  12  21 CALM      30.10S
IMPERIAL AP    CLEAR     45  16  31 W7        30.06F
EL CENTRO NAS  CLEAR     44   6  21 W9        30.09S
YUMA AZ        CLEAR     55  11  17 N13       30.04

$$

UPPER DESERT

CITY           SKY/WX    TMP DP  RH WIND       PRES   REMARKS
VICTORVILLE AP   N/A     34   3  27 CALM      30.18F
HESPERIA         N/A     38  10  31 W3        30.37F
PALMDALE       PTCLDY    30  15  53 S7        30.19F WCI  23
LANCASTER      PTCLDY    28   9  44 NW3       30.20S
EDWARDS AFB    CLEAR     28   9  45 CALM      30.17F
DAGGETT        CLEAR     38   7  27 W13       30.17F WCI  30
29 PALMS N     CLEAR     44  11  26 SE3       30.21F
NEEDLES        CLEAR     53  15  22 N13       30.12F

$$

REGIONAL REPORTS

CITY           SKY/WX    TMP DP  RH WIND       PRES   REMARKS
SANTA BARBARA  CLEAR     41  37  86 CALM      30.06F
SANDBERG       CLEAR     48  11  22 NE14      30.18
LAS VEGAS NV   CLEAR     40  12  32 S6        30.18S
PHOENIX AZ     CLEAR     47  29  49 CALM      30.03S
TIJUANA        CLEAR     48  30  49 CALM      30.09
ENSENADA NW      N/A     55  32  41 N1        30.02F

$$

OFFSHORE ISLANDS

CITY           SKY/WX    TMP DP  RH WIND       PRES   REMARKS
CATALINA ARPT  CLEAR     62  13  14 N6        30.08S
SAN NICOLAS IS CLEAR     53  51  93 NW12      30.05F

$$

MARINE AND OFFSHORE BUOY REPORTS

STATION/POSITION SKY/WX   TEMP    WIND        PRES    SWELL
                          AIR SEA DIR/SP/G            HT/PER/DIR
                          (F)     (DEG/KT/KT) (MB)    (FT/S/D)
TANNER BANKS               60 62  310/ 16/ 17 1017.5F   8/310/19
S CLEMENTE BASIN           60 60  320/  4/  6 1017.7F   5/280/19
SAN NICOLAS IS.               59                N/A     7/300/18
SO. S. ROSA ISLA           58 58  320/ 17/ 21 1017.6S   8/300/17
W. S. BARBARA CH           58 58  320/ 10/ 14 1018.1S   8/300/17
M. S. BARBARA CH                  190/  4/  4 1018.1F
S. MONICA BASIN            60 60  350/ 10/ 12 1017.1F   3/200/15
S PEDRO CHANNEL               61                N/A     2/270/11
CMP PENDLETON NS              60                N/A     2/220/15
OCEANSIDE OFFSHR              62                N/A     2/190/15
TORREY PINES OTR              62                N/A     2/270/18
POINT LOMA SOUTH              61                N/A     3/210/14

$$





USA.gov is the U.S. government's official web portal to all federal, state and local government web resources and services.